Weather History for KMEB - July, 2014

Change the Weather History Date:

Friday, July 4, 2014

  Actual Average (KLBT) Record (KLBT)
Temperature  
Mean Temperature 80 °F 81 °F  
Max Temperature 89 °F 91 °F 97 °F (2011)
Min Temperature 72 °F 71 °F 60 °F (2010)
Degree Days  
Heating Degree Days 0 0  
Month to date heating degree days 0  
Since 1 June heating degree days 0  
Since 1 July heating degree days 0  
Cooling Degree Days 16 16  
Month to date cooling degree days 64  
Year to date cooling degree days 702  
Since 1 June cooling degree days 452  
Growing Degree Days 30 (Base 50)    
Moisture  
Dew Point 63 °F    
Average Humidity 57    
Maximum Humidity 79    
Minimum Humidity 40    
Precipitation  
Precipitation 0.00 in 0.14 in 0.70 in (2011)
Month to date precipitation 0.55  
Year to date precipitation 19.96  
Sea Level Pressure  
Sea Level Pressure 30.03 in    
Wind  
Wind Speed 7 mph (NNW)    
Max Wind Speed 10 mph    
Max Gust Speed -    
Visibility 10 miles    
Events      
T = Trace of Precipitation, MM = Missing Value Source: NWS Daily Summary

Daily Weather History Graph

Daily Weather History Graph

Search for Another Location

Airport or City:

Trip Planner

Search our weather history database for the weather conditions in past years. The results will help you decide how hot, cold, wet, or windy it might be!

Date:

Astronomy

Jul. 04, 2014 Rise Set
Actual Time 6:09 AM EDT 8:34 PM EDT
Civil Twilight 5:39 AM EDT 9:03 PM EDT
Nautical Twilight 5:03 AM EDT 9:40 PM EDT
Astronomical Twilight 4:23 AM EDT 10:19 PM EDT
Moon 12:46 PM EDT 12:11 AM EDT
Length of Visible Light 15h 24m
Length of Day
14h 25m
Waxing Crescent, 42% of the Moon is Illuminated
Jul 4
Waxing Crescent
Jul 5
First Quarter
Jul 12
Full
Jul 18
Last Quarter
Jul 26
New

Hourly Weather History & Observations

Time (EDT) Temp. Heat Index Dew Point Humidity Pressure Visibility Wind Dir Wind Speed Gust Speed Precip Events Conditions
12:52 AM 75.9 °F - 69.1 °F 79% 29.90 in 10.0 mi NW 6.9 mph - N/A   Clear
1:52 AM 75.9 °F - 69.1 °F 79% 29.93 in 10.0 mi NW 6.9 mph - N/A   Clear
2:52 AM 77.0 °F - 66.9 °F 71% 29.93 in 10.0 mi North 9.2 mph - N/A   Partly Cloudy
3:52 AM 75.0 °F - 66.0 °F 73% 29.94 in 10.0 mi NW 6.9 mph - N/A   Partly Cloudy
4:52 AM 75.0 °F - 64.9 °F 71% 29.97 in 10.0 mi NNW 8.1 mph - N/A   Mostly Cloudy
5:52 AM 73.0 °F - 63.0 °F 71% 29.99 in 10.0 mi NNW 5.8 mph - N/A   Partly Cloudy
6:52 AM 72.0 °F - 63.0 °F 73% 30.00 in 10.0 mi NNW 3.5 mph - N/A   Clear
7:52 AM 75.9 °F - 62.1 °F 62% 30.02 in 10.0 mi North 3.5 mph - N/A   Clear
8:52 AM 79.0 °F - 60.1 °F 52% 30.03 in 10.0 mi North 10.4 mph - N/A   Clear
9:52 AM 81.0 °F 81.7 °F 61.0 °F 50% 30.04 in 10.0 mi NNE 8.1 mph - N/A   Clear
10:52 AM 82.0 °F 82.7 °F 61.0 °F 49% 30.06 in 10.0 mi North 8.1 mph - N/A   Overcast
11:52 AM 84.0 °F 84.5 °F 62.1 °F 47% 30.06 in 10.0 mi NNW 5.8 mph - N/A   Scattered Clouds
12:52 PM 84.9 °F 85.9 °F 63.0 °F 48% 30.06 in 10.0 mi NNE 4.6 mph - N/A   Clear
1:52 PM 86.0 °F 86.3 °F 62.1 °F 44% 30.05 in 10.0 mi Variable 3.5 mph - N/A   Partly Cloudy
2:52 PM 87.1 °F 87.5 °F 62.1 °F 43% 30.05 in 10.0 mi WNW 9.2 mph - N/A   Mostly Cloudy
3:52 PM 89.1 °F 89.3 °F 62.1 °F 40% 30.04 in 10.0 mi West 10.4 mph - N/A   Clear
4:52 PM 88.0 °F 87.9 °F 61.0 °F 40% 30.04 in 10.0 mi Variable 3.5 mph - N/A   Scattered Clouds
5:52 PM 88.0 °F 87.9 °F 61.0 °F 40% 30.04 in 10.0 mi West 10.4 mph - N/A   Mostly Cloudy
6:52 PM 86.0 °F 86.3 °F 62.1 °F 44% 30.06 in 10.0 mi West 8.1 mph - N/A   Partly Cloudy
7:52 PM 82.0 °F 83.1 °F 63.0 °F 52% 30.08 in 10.0 mi West 5.8 mph - N/A   Clear
8:52 PM 80.1 °F 81.2 °F 62.1 °F 54% 30.09 in 10.0 mi NW 4.6 mph - N/A   Scattered Clouds
9:52 PM 78.1 °F - 61.0 °F 56% 30.11 in 10.0 mi North 4.6 mph - N/A   Partly Cloudy
10:52 PM 73.9 °F - 61.0 °F 64% 30.12 in 10.0 mi North 6.9 mph - N/A   Clear
11:52 PM 75.0 °F - 60.1 °F 60% 30.14 in 10.0 mi NNE 6.9 mph - N/A   Overcast